Starlink 4331

operational
NORAD ID: 53046 Int'l Des: 2022-077 Owner: SPXS Country: US Constellation: starlink
LEOCIRCULARRETROGRADESSO

About Starlink 4331

Description loading...

Live Position

Loading 3D Globe...

Upcoming Passes

Altitude History

Altitude vs Time

uPlot chart will show altitude changes over time

Two-Line Element Set

1 53046U 22077D 25351.48125305 -.00000723 00000-0 -45921-4 0 9999
2 53046 97.6025 170.2791 0001733 82.7289 277.4135 15.05644062188623
Epoch: Dec 17, 2025 • Age: 14 hours

Current Status

Altitude 564.4 km
Velocity 7.58 km/s
Sub-Earth Point -36.61°S, 120.78°W
Launch Date Jul 11, 2022
Age 3.4 years
Type internet

Technical Details

Classification Payload
Mass 297.00 kg
Dry Mass 275.00 kg
Total Mass 297.00 kg
Length 0.20 m
Diameter 2.80 m
Span 9.00 m
Shape Box + pan
Manufacturer SPXS
Bus Type Starlink
Phase Status In Orbit
Owner/State SPXS/US

Large Constellations

Loading constellations...